When you browse on this site, cookies collect data to enhance your experience and personalize the content and advertising you see.
Visit our Privacy Policy to learn more. By continuing to use the site, you agree to this use of cookies and data.
  • In Germany
  • List of Countries
  • For 7 days
  • Water Temperature
  • Weather Map
  • Weather Widgets
  • user-avatar
    Login

    Hourly Weather Brussels

    Today, 29 May, Friday

    Time Temperature Precipitation Wind Pressure Humidity
    00:00 +11°C° 0 mm 4 mps 769 mmHg 73%
    01:00 +10°C° 0 mm 4 mps 768 mmHg 78%
    02:00 +9°C° 0 mm 3 mps 768 mmHg 83%
    03:00 +9°C° 0 mm 3 mps 768 mmHg 88%
    04:00 +10°C° 0 mm 3 mps 768 mmHg 85%
    05:00 +10°C° 0 mm 3 mps 768 mmHg 82%
    06:00 +11°C° 0 mm 3 mps 768 mmHg 78%
    07:00 +13°C° 0 mm 3 mps 768 mmHg 71%
    08:00 +16°C° 0 mm 3 mps 768 mmHg 64%
    09:00 +19°C° 0 mm 3 mps 767 mmHg 57%
    10:00 +20°C° 0 mm 3 mps 767 mmHg 52%
    11:00 +21°C° 0 mm 3 mps 767 mmHg 46%
    12:00 +22°C° 0 mm 3 mps 767 mmHg 40%
    13:00 +22°C° 0 mm 3 mps 766 mmHg 41%
    14:00 +22°C° 0 mm 3 mps 766 mmHg 41%
    15:00 +24°C° 0 mm 3 mps 765 mmHg 41%
    16:00 +22°C° 0 mm 3 mps 765 mmHg 47%
    17:00 +21°C° 0 mm 3 mps 764 mmHg 52%
    18:00 +20°C° 0 mm 3 mps 764 mmHg 58%
    19:00 +19°C° 0 mm 3 mps 764 mmHg 60%
    20:00 +17°C° 0 mm 3 mps 765 mmHg 62%
    21:00 +14°C° 0 mm 4 mps 765 mmHg 64%
    22:00 +13°C° 0 mm 3 mps 765 mmHg 65%
    23:00 +12°C° 0 mm 3 mps 765 mmHg 66%

    Tomorrow, 30 May, Saturday

    Time Temperature Precipitation Wind Pressure Humidity
    00:00 +12°C° 0 mm 3 mps 765 mmHg 67%
    01:00 +11°C° 0 mm 3 mps 765 mmHg 70%
    02:00 +10°C° 0 mm 3 mps 765 mmHg 73%
    03:00 +10°C° 0 mm 2 mps 765 mmHg 75%
    04:00 +11°C° 0 mm 3 mps 765 mmHg 72%
    05:00 +12°C° 0 mm 3 mps 765 mmHg 70%
    06:00 +13°C° 0 mm 3 mps 765 mmHg 67%
    07:00 +15°C° 0 mm 4 mps 765 mmHg 61%
    08:00 +18°C° 0 mm 4 mps 765 mmHg 55%
    09:00 +19°C° 0 mm 4 mps 764 mmHg 50%
    10:00 +20°C° 0 mm 5 mps 764 mmHg 48%
    11:00 +21°C° 0 mm 5 mps 764 mmHg 45%
    12:00 +22°C° 0 mm 5 mps 764 mmHg 43%
    13:00 +22°C° 0 mm 5 mps 764 mmHg 43%
    14:00 +22°C° 0 mm 4 mps 763 mmHg 43%
    15:00 +23°C° 0 mm 4 mps 763 mmHg 43%
    16:00 +22°C° 0 mm 4 mps 763 mmHg 47%
    17:00 +21°C° 0 mm 4 mps 763 mmHg 51%
    18:00 +20°C° 0 mm 4 mps 763 mmHg 56%
    19:00 +19°C° 0 mm 4 mps 763 mmHg 57%
    20:00 +17°C° 0 mm 4 mps 763 mmHg 59%
    21:00 +15°C° 0 mm 4 mps 764 mmHg 61%
    22:00 +14°C° 0 mm 4 mps 764 mmHg 63%
    23:00 +13°C° 0 mm 3 mps 764 mmHg 64%

    Day after tomorrow, 31 May, Sunday

    Time Temperature Precipitation Wind Pressure Humidity
    00:00 +12°C° 0 mm 3 mps 764 mmHg 66%
    01:00 +12°C° 0 mm 2 mps 764 mmHg 68%
    02:00 +10°C° 0 mm 2 mps 764 mmHg 70%
    03:00 +10°C° 0 mm 2 mps 765 mmHg 72%
    04:00 +12°C° 0 mm 2 mps 765 mmHg 72%
    05:00 +13°C° 0 mm 2 mps 765 mmHg 71%
    06:00 +14°C° 0 mm 2 mps 765 mmHg 70%
    07:00 +16°C° 0 mm 3 mps 765 mmHg 64%
    08:00 +18°C° 0 mm 4 mps 765 mmHg 58%
    09:00 +19°C° 0 mm 5 mps 765 mmHg 53%
    10:00 +20°C° 0 mm 5 mps 764 mmHg 50%
    11:00 +21°C° 0 mm 5 mps 764 mmHg 47%
    12:00 +21°C° 0 mm 6 mps 764 mmHg 44%
    13:00 +21°C° 0 mm 6 mps 764 mmHg 43%
    14:00 +21°C° 0 mm 6 mps 764 mmHg 42%
    15:00 +21°C° 0 mm 6 mps 763 mmHg 40%
    16:00 +21°C° 0 mm 5 mps 763 mmHg 46%
    17:00 +20°C° 0 mm 5 mps 763 mmHg 52%
    18:00 +19°C° 0 mm 4 mps 763 mmHg 58%
    19:00 +18°C° 0 mm 4 mps 763 mmHg 61%
    20:00 +15°C° 0 mm 4 mps 764 mmHg 65%
    21:00 +14°C° 0 mm 4 mps 764 mmHg 69%
    22:00 +13°C° 0 mm 4 mps 764 mmHg 72%
    23:00 +13°C° 0 mm 3 mps 764 mmHg 75%

    1 June, Monday

    Time Temperature Precipitation Wind Pressure Humidity
    00:00 +12°C° 0 mm 3 mps 764 mmHg 78%
    01:00 +11°C° 0 mm 3 mps 764 mmHg 80%
    02:00 +11°C° 0 mm 3 mps 764 mmHg 83%
    03:00 +10°C° 0 mm 2 mps 764 mmHg 85%
    04:00 +11°C° 0 mm 3 mps 764 mmHg 82%
    05:00 +13°C° 0 mm 3 mps 764 mmHg 79%
    06:00 +14°C° 0 mm 3 mps 764 mmHg 76%
    07:00 +16°C° 0 mm 3 mps 764 mmHg 70%
    08:00 +18°C° 0 mm 4 mps 764 mmHg 63%
    09:00 +20°C° 0 mm 4 mps 763 mmHg 57%
    10:00 +21°C° 0 mm 4 mps 763 mmHg 54%
    11:00 +22°C° 0 mm 4 mps 763 mmHg 52%
    12:00 +23°C° 0 mm 4 mps 763 mmHg 49%
    13:00 +23°C° 0 mm 4 mps 762 mmHg 49%
    14:00 +25°C° 0 mm 4 mps 762 mmHg 48%
    15:00 +25°C° 0 mm 4 mps 762 mmHg 48%
    16:00 +23°C° 0 mm 4 mps 762 mmHg 51%
    17:00 +24°C° 0 mm 3 mps 762 mmHg 54%
    18:00 +22°C° 0 mm 3 mps 762 mmHg 57%
    19:00 +20°C° 0 mm 3 mps 762 mmHg 62%
    20:00 +18°C° 0 mm 3 mps 762 mmHg 66%
    21:00 +16°C° 0 mm 3 mps 762 mmHg 70%
    22:00 +16°C° 0 mm 2 mps 762 mmHg 76%
    23:00 +15°C° 0 mm 2 mps 762 mmHg 81%

    2 June, Tuesday

    Time Temperature Precipitation Wind Pressure Humidity
    00:00 +14°C° 0 mm 2 mps 762 mmHg 86%
    01:00 +14°C° 0 mm 1 mps 762 mmHg 86%
    02:00 +14°C° 0 mm 1 mps 761 mmHg 86%
    03:00 +13°C° 0 mm 1 mps 761 mmHg 86%
    04:00 +15°C° 0 mm 1 mps 761 mmHg 82%
    05:00 +16°C° 0 mm 1 mps 761 mmHg 78%
    06:00 +18°C° 0 mm 1 mps 761 mmHg 74%
    07:00 +19°C° 0 mm 2 mps 761 mmHg 68%
    08:00 +21°C° 0 mm 2 mps 761 mmHg 62%
    09:00 +24°C° 0 mm 2 mps 761 mmHg 55%
    10:00 +25°C° 0 mm 2 mps 760 mmHg 51%
    11:00 +26°C° 0 mm 2 mps 760 mmHg 46%
    12:00 +27°C° 0 mm 2 mps 760 mmHg 42%
    13:00 +27°C° 0 mm 2 mps 759 mmHg 42%
    14:00 +27°C° 0 mm 2 mps 759 mmHg 42%
    15:00 +27°C° 0 mm 2 mps 758 mmHg 42%
    16:00 +26°C° 0 mm 2 mps 758 mmHg 47%
    17:00 +25°C° 0 mm 2 mps 758 mmHg 52%
    18:00 +24°C° 0 mm 2 mps 757 mmHg 57%
    19:00 +21°C° 0 mm 2 mps 757 mmHg 61%
    20:00 +20°C° 0 mm 2 mps 757 mmHg 65%
    21:00 +18°C° 0 mm 2 mps 757 mmHg 69%
    22:00 +19°C° 0 mm 1 mps 757 mmHg 70%
    23:00 +18°C° 0 mm 1 mps 756 mmHg 71%

    3 June, Wednesday

    Time Temperature Precipitation Wind Pressure Humidity
    00:00 +18°C° 0 mm 1 mps 756 mmHg 72%
    01:00 +18°C° 0 mm 1 mps 756 mmHg 73%
    02:00 +16°C° 0 mm 1 mps 755 mmHg 75%
    03:00 +16°C° 0 mm 1 mps 755 mmHg 76%
    04:00 +18°C° 0 mm 1 mps 755 mmHg 75%
    05:00 +18°C° 0 mm 1 mps 754 mmHg 73%
    06:00 +19°C° 0 mm 1 mps 754 mmHg 72%
    07:00 +20°C° 0 mm 1 mps 754 mmHg 68%
    08:00 +21°C° 0 mm 2 mps 754 mmHg 64%
    09:00 +23°C° 0 mm 2 mps 754 mmHg 60%
    10:00 +24°C° 0 mm 2 mps 754 mmHg 55%
    11:00 +25°C° 0 mm 2 mps 753 mmHg 50%
    12:00 +26°C° 0 mm 3 mps 753 mmHg 45%
    13:00 +26°C° 0 mm 3 mps 753 mmHg 48%
    14:00 +26°C° 0 mm 4 mps 753 mmHg 50%
    15:00 +25°C° 0 mm 4 mps 752 mmHg 52%
    16:00 +23°C° 0.4 mm 4 mps 752 mmHg 59%
    17:00 +22°C° 0.4 mm 4 mps 752 mmHg 65%
    18:00 +20°C° 0.4 mm 4 mps 752 mmHg 71%
    19:00 +19°C° 0.1 mm 4 mps 752 mmHg 76%
    20:00 +17°C° 0.1 mm 4 mps 753 mmHg 80%
    21:00 +15°C° 0.1 mm 4 mps 753 mmHg 85%
    22:00 +14°C° 0 mm 4 mps 753 mmHg 86%
    23:00 +13°C° 0 mm 4 mps 753 mmHg 88%
    Show more